EW1979 Weather Reports


time (UTC)temp
C
wind
direction
speed
KPH
gust
KPH
rain 1hr
cm
rain 24hr
cm
rain mn
cm
humidity
%
barometer
mb
20260905214508 33 103 3.2 0.0 0.00 0.00 0.00 47 1006.6
20260905213105 33 70 3.2 0.0 0.00 0.00 0.00 45 1006.7
20260905210104 32 144 6.4 0.0 0.00 0.00 0.00 48 1007.3
20260905204612 32 155 4.8 0.0 0.00 0.00 0.00 47 1007.5
20260905203104 32 63 4.8 0.0 0.00 0.00 0.00 47 1007.6
20260905201609 32 78 4.8 0.0 0.00 0.00 0.00 48 1007.7
20260905200003 33 172 6.4 0.0 0.00 0.00 0.00 47 1007.7
20260905194602 33 71 3.2 0.0 0.00 0.00 0.00 48 1008.3
20260905193015 32 60 3.2 0.0 0.00 0.00 0.00 52 1008.6
20260905191501 32 183 6.4 0.0 0.00 0.00 0.00 51 1008.8
20260905190004 32 72 8.0 0.0 0.00 0.00 0.00 53 1009.0
20260905184503 31 172 4.8 0.0 0.00 0.00 0.00 52 1009.3
20260905183003 32 161 8.0 0.0 0.00 0.00 0.00 54 1009.6
20260905181507 31 162 4.8 0.0 0.00 0.00 0.00 56 1009.9
20260905180004 31 222 6.4 0.0 0.00 0.00 0.00 56 1010.2
20260905174502 30 221 6.4 0.0 0.00 0.00 0.00 59 1010.3
20260905173003 31 142 8.0 0.0 0.00 0.00 0.00 59 1010.4
20260905171605 29 177 8.0 0.0 0.00 0.00 0.00 63 1010.6
20260905170109 28 189 6.4 0.0 0.00 0.00 0.00 66 1010.8
20260905164606 28 181 6.4 0.0 0.00 0.00 0.00 66 1010.8
20260905163104 29 225 6.4 0.0 0.00 0.00 0.00 65 1010.8
20260905160004 28 156 8.0 0.0 0.00 0.00 0.00 67 1010.8
20260905154504 28 163 9.7 0.0 0.00 0.00 0.00 72 1010.6
20260905153105 27 222 8.0 0.0 0.00 0.00 0.00 76 1010.8
20260905151506 26 212 6.4 0.0 0.00 0.00 0.00 79 1011.0
20260905144506 25 157 8.0 0.0 0.00 0.00 0.00 81 1010.7
20260905143003 25 210 9.7 0.0 0.00 0.00 0.00 83 1010.8
20260905140006 25 162 9.7 0.0 0.00 0.00 0.00 86 1010.6
20260905134504 23 153 8.0 0.0 0.00 0.00 0.00 89 1010.8
20260905133002 23 161 4.8 0.0 0.00 0.00 0.00 90 1010.7
20260905131504 23 168 4.8 0.0 0.00 0.00 0.00 91 1010.6
20260905130104 23 200 4.8 0.0 0.00 0.00 0.00 92 1010.5
20260905124510 22 167 4.8 0.0 0.00 0.00 0.00 92 1010.3
20260905123110 22 140 4.8 0.0 0.00 0.00 0.00 93 1010.2
20260905121510 22 151 4.8 0.0 0.00 0.00 0.00 92 1010.1
20260905120103 22 136 4.8 0.0 0.00 0.00 0.00 92 1010.2
20260905113007 22 145 4.8 0.0 0.00 0.00 0.00 92 1009.7
20260905111607 22 154 4.8 0.0 0.00 0.00 0.00 92 1009.6
20260905110105 22 193 4.8 0.0 0.00 0.00 0.00 92 1009.4
20260905104506 23 159 4.8 0.0 0.00 0.00 0.00 92 1009.2
20260905103103 23 165 4.8 0.0 0.00 0.00 0.00 92 1009.4
20260905101608 22 161 4.8 0.0 0.00 0.00 0.00 92 1009.4
20260905100117 23 171 3.2 0.0 0.00 0.00 0.00 91 1009.3
20260905093103 23 155 4.8 0.0 0.00 0.00 0.00 91 1009.3
20260905091603 23 160 4.8 0.0 0.00 0.00 0.00 91 1009.4
20260905084503 23 146 3.2 0.0 0.00 0.00 0.00 90 1009.3
20260905083007 23 138 4.8 0.0 0.00 0.00 0.00 89 1009.4
20260905081603 23 128 4.8 0.0 0.00 0.00 0.00 88 1009.4
20260905080104 23 169 4.8 0.0 0.00 0.00 0.00 88 1009.4
20260905074606 23 159 4.8 0.0 0.00 0.00 0.00 87 1009.6
20260905073012 23 163 6.4 0.0 0.00 0.00 0.00 86 1009.8
20260905071618 23 171 6.4 0.0 0.00 0.00 0.00 85 1009.8
20260905070105 23 173 6.4 0.0 0.00 0.00 0.00 83 1009.8
20260905064604 24 176 4.8 0.0 0.00 0.00 0.00 81 1009.8
20260905063105 24 167 3.2 0.0 0.00 0.00 0.00 78 1009.8
20260905061517 24 155 4.8 0.0 0.00 0.00 0.00 77 1009.9
20260905060004 24 175 4.8 0.0 0.00 0.00 0.00 75 1010.0
20260905054608 25 146 3.2 0.0 0.00 0.00 0.00 74 1009.9
20260905051509 25 150 6.4 0.0 0.00 0.00 0.00 72 1009.9
20260905050105 25 142 4.8 0.0 0.00 0.00 0.00 72 1009.9
20260905044503 25 150 4.8 0.0 0.00 0.00 0.00 72 1009.9
20260905043104 25 119 3.2 0.0 0.00 0.00 0.00 73 1009.9
20260905041504 25 115 1.6 0.0 0.00 0.00 0.00 72 1010.0
20260905040006 25 126 3.2 0.0 0.00 0.00 0.00 72 1009.9
20260905034503 25 95 3.2 0.0 0.00 0.00 0.00 72 1010.0
20260905033006 25 140 3.2 0.0 0.00 0.00 0.00 72 1009.9
20260905031616 25 78 3.2 0.0 0.00 0.00 0.00 71 1009.7
20260905030011 26 78 4.8 0.0 0.00 0.00 0.00 69 1009.9
20260905023105 26 62 1.6 0.0 0.00 0.00 0.00 68 1009.3
20260905020006 26 65 1.6 0.0 0.00 0.00 0.00 67 1009.2
20260905014506 26 82 1.6 0.0 0.00 0.00 0.00 66 1009.1
20260905013009 25 77 1.6 0.0 0.00 0.00 0.00 67 1008.9
20260905011601 25 92 0.0 0.0 0.00 0.00 0.00 67 1009.0
20260905010004 26 92 0.0 0.0 0.00 0.00 0.00 67 1009.0
20260905004700 26 92 0.0 0.0 0.00 0.00 0.00 65 1009.1
20260905003003 27 92 0.0 0.0 0.00 0.00 0.00 64 1009.0
20260905001609 27 92 0.0 0.0 0.00 0.00 0.00 64 1008.8
20260905000006 27 140 0.0 0.0 0.00 0.00 0.00 64 1008.7
20260904233003 28 140 4.8 0.0 0.00 0.00 0.00 61 1008.3
20260904231603 29 111 4.8 0.0 0.00 0.00 0.00 62 1008.2
20260904230006 30 100 4.8 0.0 0.00 0.00 0.00 65 1007.9
20260904224605 28 123 4.8 0.0 0.00 0.00 0.00 68 1008.0
20260904223003 29 107 4.8 0.0 0.00 0.00 0.00 64 1008.4
20260904221505 30 142 4.8 0.0 0.00 0.00 0.00 66 1008.4
20260904220007 28 66 3.2 0.0 0.00 0.00 0.00 68 1008.5